TimeCDT,TemperatureF,Dew PointF,Humidity,Sea Level PressureIn,VisibilityMPH,Wind Direction,Wind SpeedMPH,Gust SpeedMPH,PrecipitationIn,Events,Conditions,WindDirDegrees,DateUTC
12:52 AM,57.0,55.9,96,29.87,3.0,ESE,4.6,-,0.03,Rain-Thunderstorm,Light Thunderstorms and Rain,110,2013-05-28 05:52:00
1:07 AM,57.2,55.4,94,29.86,2.5,Calm,Calm,-,0.00,Rain-Thunderstorm,Light Thunderstorms and Rain,0,2013-05-28 06:07:00
1:26 AM,57.2,57.2,100,29.84,2.0,East,3.5,-,0.01,Rain-Thunderstorm,Thunderstorms and Rain,80,2013-05-28 06:26:00
1:44 AM,57.2,57.2,100,29.83,1.5,ESE,3.5,-,0.08,Rain-Thunderstorm,Heavy Thunderstorms and Rain,110,2013-05-28 06:44:00
1:52 AM,57.9,57.0,97,29.83,1.0,SE,6.9,-,0.12,Rain-Thunderstorm,Thunderstorms and Rain,140,2013-05-28 06:52:00
2:19 AM,60.8,59.0,94,29.82,1.0,SSE,10.4,-,0.01,,Overcast,160,2013-05-28 07:19:00
2:41 AM,60.8,60.8,100,29.81,2.0,SSE,6.9,-,0.01,,Overcast,160,2013-05-28 07:41:00
2:52 AM,62.1,61.0,96,29.81,2.5,SSE,6.9,-,0.01,,Overcast,160,2013-05-28 07:52:00
3:02 AM,62.6,60.8,94,29.81,3.0,SSE,5.8,-,N/A,,Overcast,160,2013-05-28 08:02:00
3:52 AM,63.0,62.1,97,29.79,6.0,SSE,6.9,-,N/A,,Mostly Cloudy,160,2013-05-28 08:52:00
4:52 AM,63.0,62.1,97,29.78,9.0,SSE,6.9,-,N/A,,Mostly Cloudy,160,2013-05-28 09:52:00
5:31 AM,62.6,60.8,94,29.79,9.0,SSE,11.5,-,N/A,,Scattered Clouds,160,2013-05-28 10:31:00
5:52 AM,63.0,62.1,97,29.79,7.0,South,9.2,-,N/A,,Partly Cloudy,170,2013-05-28 10:52:00
6:52 AM,64.0,62.1,93,29.79,8.0,South,9.2,-,N/A,,Partly Cloudy,180,2013-05-28 11:52:00
7:31 AM,64.4,62.6,94,29.75,8.0,South,10.4,-,N/A,,Mostly Cloudy,170,2013-05-28 12:31:00
7:39 AM,64.4,62.6,94,29.75,8.0,South,10.4,-,N/A,,Partly Cloudy,170,2013-05-28 12:39:00
7:52 AM,64.9,63.0,93,29.73,7.0,South,11.5,-,0.00,Rain,Light Rain,170,2013-05-28 12:52:00
8:52 AM,66.9,64.9,93,29.78,8.0,SW,8.1,-,0.00,Rain,Light Rain,230,2013-05-28 13:52:00
9:08 AM,66.2,64.4,94,29.78,8.0,SSW,8.1,-,0.00,,Mostly Cloudy,200,2013-05-28 14:08:00
9:19 AM,66.2,64.4,94,29.79,8.0,SW,6.9,-,0.00,,Overcast,220,2013-05-28 14:19:00
9:44 AM,66.2,64.4,94,29.79,9.0,SSW,6.9,-,0.00,,Overcast,200,2013-05-28 14:44:00
9:52 AM,68.0,64.9,90,29.78,9.0,SSW,8.1,-,0.00,,Overcast,200,2013-05-28 14:52:00
10:42 AM,69.8,64.4,83,29.78,10.0,SW,12.7,-,N/A,,Overcast,220,2013-05-28 15:42:00
10:52 AM,70.0,64.9,84,29.78,10.0,SW,10.4,-,N/A,,Overcast,220,2013-05-28 15:52:00
11:17 AM,73.4,66.2,78,29.78,10.0,SSW,11.5,23.0,N/A,,Scattered Clouds,210,2013-05-28 16:17:00
11:52 AM,73.9,66.9,79,29.78,10.0,SW,11.5,19.6,N/A,,Mostly Cloudy,230,2013-05-28 16:52:00
12:52 PM,73.0,66.0,79,29.77,9.0,SSW,16.1,26.5,N/A,,Overcast,210,2013-05-28 17:52:00
1:52 PM,73.0,66.9,81,29.77,9.0,SSW,12.7,21.9,0.00,,Overcast,210,2013-05-28 18:52:00
2:52 PM,75.0,69.1,82,29.76,8.0,South,8.1,-,0.00,,Overcast,190,2013-05-28 19:52:00
3:52 PM,75.0,68.0,79,29.76,10.0,SSW,12.7,25.3,N/A,,Overcast,210,2013-05-28 20:52:00
4:52 PM,75.0,66.9,76,29.77,10.0,SSW,13.8,23.0,N/A,,Overcast,200,2013-05-28 21:52:00
5:52 PM,75.0,66.9,76,29.75,10.0,SSW,13.8,20.7,N/A,,Overcast,200,2013-05-28 22:52:00
6:49 PM,73.4,66.2,78,29.76,9.0,SSW,12.7,-,N/A,,Mostly Cloudy,200,2013-05-28 23:49:00
6:52 PM,73.9,66.9,79,29.74,9.0,SSW,9.2,19.6,N/A,,Overcast,200,2013-05-28 23:52:00
7:27 PM,73.4,68.0,83,29.76,9.0,SW,11.5,23.0,N/A,Thunderstorm,Overcast,220,2013-05-29 00:27:00
7:52 PM,73.0,68.0,84,29.74,9.0,SSW,9.2,-,N/A,Thunderstorm,Overcast,200,2013-05-29 00:52:00
8:52 PM,70.0,66.0,87,29.76,10.0,South,13.8,24.2,0.03,Rain-Thunderstorm,Light Rain,190,2013-05-29 01:52:00
9:52 PM,70.0,62.1,76,29.81,10.0,West,15.0,24.2,0.02,Thunderstorm,Clear,260,2013-05-29 02:52:00
10:52 PM,66.0,63.0,90,29.82,10.0,South,4.6,-,N/A,Thunderstorm,Clear,170,2013-05-29 03:52:00
11:02 PM,66.2,62.6,88,29.84,10.0,SE,3.5,-,N/A,,Clear,140,2013-05-29 04:02:00
11:52 PM,64.9,63.0,93,29.83,4.0,South,5.8,-,0.04,Rain-Thunderstorm,Rain,190,2013-05-29 04:52:00